Weather History for KOVE - July, 2013

Change the Weather History Date:

Tuesday, July 16, 2013

  Actual Average Record
Temperature  
Mean Temperature 72 °F -  
Max Temperature 86 °F 96 °F 113 °F (1972)
Min Temperature 57 °F 62 °F 54 °F (1986)
Cooling Degree Days 6    
Growing Degree Days 22 (Base 50)    
Moisture  
Dew Point 50 °F    
Average Humidity 53    
Maximum Humidity 83    
Minimum Humidity 19    
Precipitation  
Precipitation 0.00 in - - ()
Sea Level Pressure  
Sea Level Pressure 29.90 in    
Wind  
Wind Speed 10 mph (SSE)    
Max Wind Speed 14 mph    
Max Gust Speed 17 mph    
Visibility 10 miles    
Events      
Averages and records for this station are not official NWS values.
T = Trace of Precipitation, MM = Missing Value Source: NWS Daily Summary

Daily Weather History Graph

Daily Weather History Graph

Search for Another Location

Airport or City:

Trip Planner

Search our weather history database for the weather conditions in past years. The results will help you decide how hot, cold, wet, or windy it might be!

Date:

Astronomy

Jul. 16, 2013 Rise Set
Actual Time 5:52 AM PDT 8:31 PM PDT
Civil Twilight 5:21 AM PDT 9:03 PM PDT
Nautical Twilight 4:42 AM PDT 9:42 PM PDT
Astronomical Twilight 3:57 AM PDT 10:26 PM PDT
Moon 2:20 PM PDT (7/16) 12:24 AM PDT (7/16)
Length of Visible Light 15h 41m
Length of Day
14h 39m
First Quarter, 57% of the Moon is Illuminated
Jul 16
First Quarter
Jul 22
Full
Jul 29
Last Quarter
Aug 6
New
Aug 14
First Quarter

Hourly Weather History & Observations

Time (PDT) Temp. Dew Point Humidity Pressure Visibility Wind Dir Wind Speed Gust Speed Precip Events Conditions
12:53 AM 64.9 °F 52.0 °F 63% 29.81 in 10.0 mi SE 10.4 mph - N/A   Clear
1:53 AM 64.0 °F 51.1 °F 63% 29.81 in 10.0 mi SSE 9.2 mph - N/A   Clear
2:53 AM 61.0 °F 50.0 °F 67% 29.82 in 10.0 mi SSE 9.2 mph - N/A   Clear
3:53 AM 59.0 °F 51.1 °F 75% 29.83 in 10.0 mi SSE 8.1 mph - N/A   Clear
4:53 AM 57.9 °F 52.0 °F 81% 29.84 in 10.0 mi SSE 5.8 mph - N/A   Clear
5:53 AM 57.0 °F 52.0 °F 83% 29.86 in 10.0 mi SSE 9.2 mph - N/A   Clear
6:53 AM 57.0 °F 52.0 °F 83% 29.88 in 10.0 mi SSE 8.1 mph - N/A   Clear
7:53 AM 60.1 °F 52.0 °F 75% 29.90 in 10.0 mi South 12.7 mph - N/A   Clear
8:53 AM 63.0 °F 53.1 °F 70% 29.92 in 10.0 mi SSE 9.2 mph - N/A   Clear
9:53 AM 68.0 °F 52.0 °F 56% 29.93 in 10.0 mi South 11.5 mph - N/A   Clear
10:53 AM 72.0 °F 51.1 °F 48% 29.93 in 10.0 mi SSE 12.7 mph - N/A   Clear
11:53 AM 75.9 °F 51.1 °F 42% 29.94 in 10.0 mi South 11.5 mph 17.3 mph N/A   Clear
12:53 PM 78.1 °F 50.0 °F 37% 29.94 in 10.0 mi SSE 10.4 mph - N/A   Clear
1:53 PM 81.0 °F 48.0 °F 31% 29.94 in 10.0 mi South 10.4 mph 17.3 mph N/A   Clear
2:53 PM 82.9 °F 44.1 °F 25% 29.93 in 10.0 mi South 13.8 mph - N/A   Clear
3:53 PM 84.0 °F 48.0 °F 28% 29.92 in 10.0 mi South 9.2 mph 17.3 mph N/A   Clear
4:53 PM 84.9 °F 48.9 °F 29% 29.91 in 10.0 mi South 12.7 mph - N/A   Clear
5:53 PM 86.0 °F 39.0 °F 19% 29.89 in 10.0 mi South 12.7 mph - N/A   Clear
6:53 PM 82.9 °F 45.0 °F 26% 29.89 in 10.0 mi SSE 11.5 mph - N/A   Clear
7:53 PM 80.1 °F 50.0 °F 35% 29.90 in 10.0 mi South 9.2 mph - N/A   Clear
8:53 PM 75.0 °F 52.0 °F 44% 29.92 in 10.0 mi SSE 10.4 mph - N/A   Clear
9:53 PM 71.1 °F 53.1 °F 53% 29.95 in 10.0 mi SSE 13.8 mph - N/A   Clear
10:53 PM 68.0 °F 55.0 °F 63% 29.98 in 10.0 mi SSE 13.8 mph - N/A   Clear
11:53 PM 64.9 °F 55.0 °F 70% 29.99 in 10.0 mi SE 8.1 mph - N/A   Clear